カタログに戻る

KUIPER-00128

運用中通信LEO
NORAD 65957·PAYLOAD·🇺🇸 United States

打ち上げ Oct 14, 2025 から Cape Canaveral Space Force Station

Loading…

次のパス (今後24時間)

TLE

最新Source: CelesTrak SupGP

元期: Sep 14, 2026, 19:10 UTC

1 65957C 25228L   26257.79885417  .00002661  00000+0  34838-3 0  2572
2 65957  51.8995 236.8909 0000693  70.5172 352.8322 14.79927092    14

AllMySatでKUIPER-00128をリアルタイム追跡

Download on the App Store